Probability
4 4 7 9 10 11 13 13 12 10 10 8 4 3 4 4 3 3 2 3 2 2 2 1 0 1 2 2 2 1 0 0 0 0 0 0 0 0 0 0 0 0 0
2 4 6 9 10 12 12 13 12 11 11 8 6 4 4 5 5 5 4 3 1 1 1 0 0 0 1 1 2 1 0 0 0 0 0 0 0 0 0 0 0 0 0
2 4 6 9 11 12 12 11 11 12 11 10 8 6 5 5 6 5 4 3 1 1 2 1 0 0 0 0 1 1 0 0 0 0 0 0 0 0 0 0 0 0 0
5 6 7 8 10 12 12 11 10 11 10 10 9 7 6 5 4 5 4 3 2 2 2 1 0 0 0 0 0 0 0 0 0 0 0 0 0 0 0 0 0 0 0
5 6 7 6 7 11 12 11 10 9 9 9 9 8 7 5 5 4 4 3 1 1 1 1 1 0 0 0 1 1 1 1 1 1 0 0 0 0 0 0 0 0 0
4 5 5 5 7 10 12 12 10 9 8 7 8 9 9 7 6 5 5 4 2 1 0 1 2 3 2 2 2 2 2 2 2 2 1 0 0 0 0 0 0 0 0
2 3 4 5 7 10 11 11 11 10 9 7 7 8 8 6 6 7 7 8 6 3 1 1 3 5 4 3 3 3 3 3 2 2 1 0 0 1 0 0 0 0 0
2 2 3 5 7 9 10 11 12 12 10 8 7 6 4 3 4 6 7 8 7 5 2 0 1 3 4 3 3 3 3 1 1 1 0 0 0 0 0 0 0 0 0
1 2 3 5 7 9 11 12 13 12 10 8 7 5 2 1 2 4 6 6 6 5 3 1 1 2 3 3 3 3 2 1 0 0 0 0 0 0 0 0 0 0 0
2 3 6 7 8 9 11 13 14 11 8 8 8 5 2 2 1 2 4 5 4 4 4 3 3 3 3 3 2 1 1 0 0 0 0 0 0 0 0 0 0 0 0
4 5 7 8 8 8 10 12 13 11 8 8 7 4 2 1 1 1 2 3 3 4 5 5 5 5 3 2 1 0 0 0 0 0 0 0 0 0 0 0 0 0 0
4 5 6 6 6 6 7 8 9 9 8 6 6 5 2 0 0 0 0 1 1 3 5 5 5 5 2 1 0 0 0 0 0 0 0 0 0 0 0 0 0 0 0
4 4 4 5 4 4 4 4 4 6 7 6 5 5 4 2 1 0 0 0 0 2 4 4 4 4 2 1 0 0 0 0 0 0 0 0 0 0 0 0 0 0 0
4 4 4 4 4 3 3 1 1 4 7 7 6 4 3 3 2 2 1 1 0 1 2 3 3 3 3 2 1 0 0 0 0 0 0 0 0 0 0 0 0 0 0
4 3 4 4 4 4 2 1 1 3 6 7 6 4 3 3 4 5 4 2 0 0 1 3 3 3 3 2 1 0 0 0 0 0 0 0 0 0 0 0 0 0 0
3 3 3 4 3 3 2 1 2 3 4 5 5 5 4 3 4 4 4 2 1 1 1 2 3 3 3 1 0 0 0 1 1 0 0 0 0 0 0 0 0 0 0
2 2 2 2 1 1 2 3 4 4 3 4 4 4 5 4 3 2 2 2 2 2 1 2 3 3 2 1 0 0 0 1 2 1 1 1 1 0 0 0 0 0 0
1 1 1 1 1 1 4 6 6 5 4 4 4 5 6 5 3 1 1 2 3 2 1 1 2 3 2 1 0 0 0 1 2 2 2 2 2 1 0 0 0 0 0
0 0 0 1 2 4 7 9 9 7 6 6 6 7 7 6 3 1 0 1 2 2 1 0 1 3 2 1 0 0 0 0 1 1 1 2 2 1 0 0 0 0 0
1 1 1 2 4 7 9 10 11 11 9 9 9 10 10 8 4 1 0 0 1 1 1 0 1 2 2 1 0 0 0 0 0 0 0 1 1 0 0 0 0 0 0
2 2 2 3 5 7 8 10 12 12 11 11 12 12 12 9 4 1 1 1 1 1 1 1 2 3 3 1 0 0 1 0 0 0 0 0 0 0 0 0 0 0 0
3 3 3 4 5 6 8 10 12 12 12 12 12 13 12 8 5 3 2 2 2 2 2 3 5 5 4 1 0 0 0 0 0 0 0 0 0 0 0 0 0 0 0
2 2 3 3 5 6 8 9 10 12 12 12 12 12 11 9 6 4 3 3 3 3 3 4 7 7 4 2 0 0 0 0 0 0 0 0 0 0 0 0 0 0 0
1 1 1 2 3 4 6 8 9 10 11 11 11 11 11 9 7 5 4 4 3 3 3 4 6 6 5 2 1 0 0 0 0 0 0 0 0 0 0 0 0 0 0
0 0 0 1 1 2 5 7 8 9 10 10 10 9 8 7 6 6 5 4 3 2 2 3 4 5 4 2 1 0 0 0 0 0 0 0 0 0 0 0 0 0 0
0 0 0 0 0 1 5 7 8 9 10 10 9 8 6 5 5 6 5 3 1 1 1 2 3 4 2 1 0 0 0 0 0 0 0 0 0 0 0 0 0 0 0
Wind_Speed
4 4 5 5 5 5 6 6 6 5 5 3 3 2 2 2 2 2 2 3 3 3 3 2 3 3 3 3 3 3 3 2 2 2 2 2 2 1 0 1 1 0 1
2 3 4 5 6 6 6 6 6 6 5 4 3 2 2 1 1 1 2 2 2 3 3 3 3 3 3 3 3 3 2 2 2 2 2 1 2 2 1 0 1 1 1
4 4 4 4 5 5 6 6 5 5 5 4 3 2 2 2 1 1 1 1 2 3 3 3 3 3 3 3 3 3 4 3 1 1 3 3 2 1 1 1 0 0 0
3 4 4 4 5 5 4 4 4 4 4 5 5 5 3 3 3 2 2 1 2 2 3 3 3 3 3 3 3 3 2 3 2 1 1 1 3 2 0 1 1 1 1
4 4 5 5 4 4 4 4 4 4 4 5 5 5 3 2 2 2 2 1 2 2 3 3 3 3 3 3 3 3 3 3 3 2 2 2 1 1 2 1 1 1 1
3 3 3 4 3 3 4 4 4 4 4 5 5 5 5 4 4 3 2 2 2 2 2 3 3 3 3 3 3 3 3 3 3 2 2 2 2 2 2 2 1 1 2
2 3 3 3 3 4 4 4 4 3 3 4 4 4 5 5 5 4 4 3 2 2 3 3 4 3 3 4 3 3 3 3 3 3 2 2 2 2 2 2 1 1 1
2 2 3 4 4 4 4 4 4 3 3 3 4 3 4 3 3 4 4 4 4 4 4 4 4 3 3 4 3 2 3 3 3 3 2 2 2 2 3 3 3 1 1
1 2 2 2 3 3 3 3 3 2 2 3 3 3 3 3 3 3 3 3 3 3 4 4 4 3 4 4 4 3 3 3 3 3 3 2 2 2 2 2 3 3 2
1 1 2 2 2 2 2 2 2 2 1 2 2 2 3 3 3 2 3 3 3 3 4 4 4 3 3 4 4 3 3 3 3 2 3 2 2 2 2 2 2 2 3
1 1 2 2 2 2 2 2 2 2 1 1 1 1 2 2 2 3 3 3 3 3 4 4 4 4 4 4 4 4 4 4 3 3 3 3 3 2 2 2 2 2 2
1 1 2 2 2 1 1 1 1 1 1 1 0 1 1 2 2 3 3 3 3 3 4 4 4 4 4 4 5 5 5 5 4 4 3 4 3 3 3 3 3 3 3
2 2 2 2 1 1 1 1 1 1 1 1 1 0 1 1 2 3 2 3 3 3 3 4 4 4 4 5 5 5 4 5 4 4 4 4 4 3 3 3 3 2 2
1 1 1 1 1 1 1 1 1 1 1 1 1 1 2 2 2 2 2 3 3 3 4 4 4 4 5 5 5 5 4 4 4 4 4 4 5 5 4 4 4 3 3
1 1 1 1 1 1 1 1 2 1 1 1 1 2 2 1 1 2 2 2 3 3 3 4 4 4 4 4 5 5 5 4 4 3 4 4 5 5 4 4 4 4 3
1 1 1 1 1 1 1 1 1 2 2 2 2 1 1 1 1 2 2 2 2 2 3 4 4 5 4 5 7 5 5 4 4 4 3 3 4 5 6 6 6 7 5
1 1 1 2 2 2 2 1 1 1 1 1 1 1 1 2 2 2 1 2 2 2 3 4 4 5 5 6 7 7 5 5 4 4 3 3 3 4 3 4 5 6 7
2 1 1 1 1 1 0 1 1 1 1 1 1 1 2 2 2 2 2 2 2 3 3 4 4 4 5 6 7 7 5 4 4 4 4 4 3 3 3 3 3 4 5
2 2 2 2 1 1 1 1 1 0 0 2 2 2 2 2 2 2 3 3 2 2 3 3 4 4 4 6 7 6 4 3 4 4 4 4 4 4 5 4 3 3 4
1 1 1 1 0 1 1 2 1 0 2 3 3 3 2 2 3 3 3 2 2 3 3 3 4 5 4 5 7 7 4 4 3 3 3 5 5 5 6 4 4 5 4
1 1 1 1 1 1 1 1 1 2 4 3 2 2 2 3 3 3 2 2 2 2 2 3 3 4 5 6 7 8 4 4 4 3 3 3 6 6 6 6 5 6 4
0 1 1 1 1 0 1 1 2 3 2 1 1 1 2 2 2 2 2 2 2 2 2 2 2 2 3 4 6 8 7 5 4 4 3 3 5 6 6 5 6 6 4
1 0 1 1 2 1 1 2 3 2 1 1 2 2 2 2 1 2 2 2 2 2 2 2 3 3 2 3 6 8 8 7 5 4 4 4 5 5 4 6 6 5 3
1 1 1 1 2 2 2 2 3 1 0 1 2 2 2 2 2 1 1 2 2 2 2 3 3 3 3 3 3 4 5 5 4 3 3 3 3 3 3 3 3 3 3
2 1 0 0 1 2 2 3 2 1 1 2 2 2 2 2 2 2 2 2 3 4 4 4 4 4 4 5 5 4 4 4 4 3 2 2 2 2 3 2 2 3 3
1 1 1 1 2 2 2 2 2 1 1 2 2 2 2 2 2 2 3 3 4 5 6 6 5 5 6 5 6 7 7 7 7 5 3 3 4 4 4 4 3 3 4
Wind_Direction
206 173 170 166 158 154 160 169 172 171 159 154 159 162 183 183 176 184 182 181 178 167 159 157 149 147 153 159 149 141 132 124 124 98 60 33 45 56 51 96 124 171 190
180 166 166 171 169 171 172 173 176 171 169 167 155 157 151 167 168 161 162 175 172 169 170 163 157 153 145 145 148 144 139 136 137 125 107 37 4 14 38 48 161 205 203
189 176 171 171 166 176 182 182 179 171 164 153 132 105 89 79 106 154 180 200 183 178 174 174 159 160 158 164 166 162 156 155 145 134 146 155 203 301 349 1 5 310 226
175 173 175 175 176 183 173 168 174 167 163 155 156 163 170 175 196 190 192 202 196 182 175 171 163 166 169 169 174 167 163 154 163 148 139 149 152 154 196 331 331 290 246
178 178 181 181 180 169 157 156 161 160 163 167 166 167 171 176 167 155 162 196 214 197 187 178 171 175 179 179 174 164 165 160 163 165 162 145 121 138 158 222 299 321 281
175 172 162 142 151 150 145 151 159 165 166 167 168 173 175 175 167 174 180 207 217 211 203 191 188 185 183 186 186 176 170 170 167 171 170 164 164 176 171 193 228 265 283
149 139 138 138 144 156 159 156 159 171 170 168 176 186 185 182 182 187 193 195 203 211 215 202 194 191 191 187 178 173 178 178 179 185 188 184 188 166 159 163 185 228 281
146 147 161 155 152 155 155 154 161 167 166 179 189 184 183 188 196 194 194 202 206 210 206 204 198 194 185 180 171 172 179 177 186 190 185 188 196 182 176 168 160 173 271
148 155 155 134 133 151 161 164 159 156 176 189 190 181 179 188 200 201 200 207 214 211 200 199 194 189 182 178 171 182 185 178 188 191 189 192 198 194 190 177 171 167 199
145 136 124 115 118 145 147 135 139 153 166 182 199 197 194 198 200 199 209 208 209 207 193 194 189 185 186 184 180 183 185 179 192 188 191 201 199 189 182 182 183 179 179
152 148 132 126 123 115 108 119 125 126 135 174 232 212 215 207 196 206 217 207 199 197 196 194 189 189 190 188 187 194 188 190 197 200 200 209 190 181 180 174 171 174 173
72 119 131 123 112 104 109 130 141 148 204 198 99 258 221 196 199 214 215 198 196 199 196 189 187 192 190 188 189 197 195 195 200 205 202 212 196 186 182 181 187 188 187
36 71 93 120 146 160 166 181 185 201 208 144 141 207 262 218 221 227 218 203 196 196 196 189 190 192 188 187 193 196 196 198 203 204 204 210 193 196 192 191 193 194 187
101 98 104 128 195 196 195 203 223 212 186 160 168 213 247 246 239 235 224 212 200 197 201 202 198 193 190 190 194 194 195 201 206 207 204 204 199 205 202 199 196 186 177
141 168 168 182 191 209 216 214 224 209 192 189 213 236 250 260 245 231 225 218 209 209 205 204 203 197 193 199 194 194 196 201 209 212 212 212 208 208 205 202 193 182 182
182 199 214 193 198 209 219 227 230 216 184 194 237 251 249 263 262 248 225 218 221 214 206 210 210 209 214 206 195 189 193 195 202 210 218 220 212 219 216 213 202 190 188
195 191 207 207 219 226 197 193 220 199 166 205 247 239 228 249 264 264 238 225 226 219 216 217 212 217 220 199 193 194 190 195 203 205 205 215 215 203 212 220 218 215 215
212 223 215 219 225 216 186 117 100 122 168 241 259 246 231 244 258 258 250 242 225 219 224 224 218 219 226 205 196 192 193 201 211 211 204 208 212 203 201 209 218 227 226
225 236 223 206 188 177 166 118 90 75 271 264 256 250 239 243 254 257 256 246 230 227 229 227 218 217 227 209 199 186 192 208 221 220 211 208 213 212 196 197 217 241 252
229 251 236 114 126 248 149 130 153 213 258 259 255 247 232 226 239 246 246 243 236 236 229 232 224 216 222 210 198 187 194 208 221 223 219 215 215 212 194 198 209 234 249
243 220 145 146 230 249 133 154 204 246 258 262 258 250 241 231 234 241 234 231 238 237 231 237 241 229 226 213 199 191 194 204 212 221 224 226 216 215 209 205 215 230 236
348 114 118 290 308 253 156 204 251 264 278 290 295 285 265 246 243 233 236 223 210 216 235 245 259 251 233 216 206 199 203 201 204 218 225 227 215 218 219 216 227 228 223
344 61 122 350 334 305 198 234 268 287 315 319 306 306 299 277 265 226 223 222 206 209 232 232 247 259 251 228 209 206 208 208 210 222 221 219 214 216 224 229 228 219 211
319 4 79 40 341 327 315 278 287 297 304 278 285 293 295 298 291 257 216 215 219 221 231 236 243 248 246 236 215 209 208 206 214 224 215 212 214 221 234 239 229 216 212
312 329 84 338 306 317 320 316 312 311 279 283 291 285 275 275 285 283 252 236 235 227 227 232 230 232 240 236 221 209 205 198 200 181 183 201 211 219 227 231 230 219 209
326 340 321 293 303 321 322 322 316 298 262 277 282 276 272 270 269 279 302 290 261 256 248 240 234 241 238 230 215 213 206 196 173 160 189 208 216 224 229 229 228 220 219